Ashland, MO

8:26 AM CST on February 07, 2016 (GMT -0600)
Columbia Regional

Weather History for KCOU - December, 2013

Change the Weather History Date:

Monday, December 9, 2013

  Actual Average Record
Temperature  
Mean Temperature 19 °F 34 °F  
Max Temperature 24 °F 43 °F 73 °F (1940)
Min Temperature 13 °F 25 °F -5 °F (1909)
Degree Days  
Heating Degree Days 46 31  
Month to date heating degree days 303 266  
Since 1 July heating degree days 1310 1251  
Cooling Degree Days 0 0  
Month to date cooling degree days 0 0  
Year to date cooling degree days 1322 1249  
Moisture  
Dew Point 12 °F    
Average Humidity 75    
Maximum Humidity 88    
Minimum Humidity 62    
Precipitation  
Precipitation 0.00 in 0.09 in 1.14 in (2007)
Month to date precipitation 0.04 0.82  
Year to date precipitation 39.85 41.00  
Snow  
Snow 0.00 in 0.10 in 5.80 in (1944)
Month to date snowfall 0.2 1.0  
Since 1 July snowfall 0.2 1.9  
Snow Depth T in    
Sea Level Pressure  
Sea Level Pressure 30.28 in    
Wind  
Wind Speed 10 mph (WNW)    
Max Wind Speed 18 mph    
Max Gust Speed 24 mph    
Visibility 10 miles    
Events      
T = Trace of Precipitation, MM = Missing Value Source: NWS Daily Summary

Daily Weather History Graph

Daily Weather History Graph

Search for Another Location

Airport or City:

Trip Planner

Search our weather history database for the weather conditions in past years. The results will help you decide how hot, cold, wet, or windy it might be!

Date:

Astronomy

Dec. 09, 2013 Rise Set
Actual Time 7:15 AM CST 4:46 PM CST
Civil Twilight 6:45 AM CST 5:16 PM CST
Nautical Twilight 6:12 AM CST 5:50 PM CST
Astronomical Twilight 5:40 AM CST 6:22 PM CST
Moon 12:12 PM CST (12/9) No Moon Set
Length of Visible Light 10h 30m
Length of Day
9h 31m
Waxing Crescent, 51% of the Moon is Illuminated
Dec 9
Waxing Crescent
Dec 17
Full
Dec 25
Last Quarter
Jan 1
New
Jan 7
First Quarter

Hourly Weather History & Observations

Time (CST) Temp. Windchill Dew Point Humidity Pressure Visibility Wind Dir Wind Speed Gust Speed Precip Events Conditions
12:05 AM 24.1 °F 15.2 °F 21.0 °F 88% 30.11 in 10.0 mi West 8.1 mph - N/A   Overcast
12:41 AM 24.1 °F 13.1 °F 21.0 °F 88% 30.11 in 10.0 mi WNW 11.5 mph - N/A   Overcast
12:54 AM 24.1 °F 13.1 °F 21.0 °F 88% 30.15 in 10.0 mi WNW 11.5 mph - N/A   Overcast
1:34 AM 23.0 °F 12.4 °F 19.0 °F 85% 30.13 in 10.0 mi WNW 10.4 mph - N/A   Overcast
1:54 AM 23.0 °F 13.1 °F 19.0 °F 85% 30.17 in 10.0 mi WNW 9.2 mph - N/A   Overcast
2:05 AM 23.0 °F 12.4 °F 19.0 °F 85% 30.14 in 10.0 mi WNW 10.4 mph - N/A   Overcast
2:54 AM 21.9 °F 8.7 °F 18.0 °F 85% 30.20 in 10.0 mi WNW 15.0 mph 19.6 mph N/A   Overcast
3:38 AM 19.9 °F 7.9 °F 14.0 °F 78% 30.16 in 10.0 mi WNW 11.5 mph - N/A   Scattered Clouds
3:54 AM 19.0 °F 5.0 °F 14.0 °F 81% 30.20 in 10.0 mi WNW 15.0 mph - N/A   Clear
4:54 AM 18.0 °F 6.9 °F 12.9 °F 81% 30.24 in 10.0 mi WNW 9.2 mph - N/A   Partly Cloudy
5:54 AM 16.0 °F 5.3 °F 12.0 °F 84% 30.24 in 10.0 mi WNW 8.1 mph - N/A   Clear
6:54 AM 15.1 °F -0.1 °F 10.9 °F 84% 30.22 in 10.0 mi NW 15.0 mph - N/A   Clear
7:54 AM 14.0 °F 2.0 °F 10.0 °F 84% 30.30 in 10.0 mi West 9.2 mph - N/A   Clear
8:54 AM 16.0 °F 3.6 °F 10.9 °F 81% 30.35 in 10.0 mi West 10.4 mph - N/A   Clear
9:54 AM 19.0 °F 7.5 °F 12.0 °F 74% 30.38 in 10.0 mi West 10.4 mph - N/A   Clear
10:54 AM 19.9 °F 10.1 °F 12.0 °F 71% 30.39 in 10.0 mi West 8.1 mph - N/A   Clear
11:54 AM 21.0 °F 7.1 °F 10.0 °F 63% 30.36 in 10.0 mi NW 16.1 mph - N/A   Clear
12:54 PM 21.9 °F 8.7 °F 10.9 °F 63% 30.33 in 10.0 mi NW 15.0 mph 18.4 mph N/A   Scattered Clouds
1:54 PM 19.9 °F 6.2 °F 10.9 °F 68% 30.33 in 10.0 mi West 15.0 mph - N/A   Mostly Cloudy
2:54 PM 19.0 °F 8.2 °F 10.0 °F 68% 30.33 in 10.0 mi WNW 9.2 mph - N/A   Overcast
3:54 PM 19.0 °F 7.5 °F 10.0 °F 68% 30.32 in 10.0 mi NW 10.4 mph - N/A   Overcast
4:54 PM 18.0 °F 7.7 °F 9.0 °F 68% 30.32 in 10.0 mi NW 8.1 mph - N/A   Overcast
5:54 PM 17.1 °F 6.6 °F 8.1 °F 68% 30.33 in 10.0 mi NW 8.1 mph - N/A   Overcast
6:54 PM 17.1 °F 11.7 °F 8.1 °F 68% 30.33 in 10.0 mi WNW 3.5 mph - N/A   Overcast
7:54 PM 16.0 °F 8.8 °F 8.1 °F 71% 30.33 in 10.0 mi West 4.6 mph - N/A   Overcast
8:54 PM 16.0 °F 7.4 °F 7.0 °F 68% 30.33 in 10.0 mi WNW 5.8 mph - N/A   Overcast
9:54 PM 15.1 °F 5.2 °F 7.0 °F 70% 30.33 in 10.0 mi WNW 6.9 mph - N/A   Overcast
10:54 PM 14.0 °F 3.9 °F 7.0 °F 74% 30.32 in 10.0 mi SW 6.9 mph - N/A   Scattered Clouds
11:54 PM 12.9 °F 3.8 °F 7.0 °F 77% 30.34 in 10.0 mi West 5.8 mph - N/A   Clear